[Iaude] MPEC A135: 2003 BN1 [a=1.54,e=0.49,i=61.1,H=20.46]
    mpec at marsden.cfa.harvard.edu 
    mpec at marsden.cfa.harvard.edu
       
    Thu Jan 11 20:12:01 EST 2024
    
    
  
M.P.E.C. 2024-A135                             Issued 2024 January 12, 01:10 UT
     The Minor Planet Electronic Circulars contain information on unusual
         minor planets, routine data on comets and natural satellites,
         and occasional editorial announcements.  They are published
    on behalf of Division F of the International Astronomical Union by the
          Minor Planet Center, Smithsonian Astrophysical Observatory,
                          Cambridge, MA 02138, U.S.A.
			  
             Prepared using the Tamkin Foundation Computer Network
                              MPC at CFA.HARVARD.EDU
            URL https://www.minorplanetcenter.net/    ISSN 1523-6714
                                    2003 BN1                                    
                           Revision to MPEC 2003-B30                            
Additional Observations:
     K03B01N 1C2024 01 10.54269112 19 43.619+01 13 33.35         19.28GVEA135703
     K03B01N 1C2024 01 10.54500612 19 41.092+01 13 05.16         19.64GVEA135703
     K03B01N 1C2024 01 10.54732212 19 38.564+01 12 33.34               VEA135703
     K03B01N 1C2024 01 10.55158212 19 33.930+01 11 37.70         19.03GVEA135703
     K03B01N 1C2024 01 10.55281712 19 32.490+01 11 19.70         18.94GVEA135703
     K03B01N KB2024 01 10.73090212 16 21.916+00 32 11.77         19.6 GXEA135Q12
     K03B01N NC2024 01 11.07556512 10 00.78 -00 45 02.9          19.1 GVEA135L01
     K03B01N KC2024 01 11.07704812 09 59.12 -00 45 22.8          19.3 GVEA135L01
     K03B01N KC2024 01 11.07852912 09 57.45 -00 45 42.9          19.3 GVEA135L01
     K03B01N KC2024 01 11.08001112 09 55.74 -00 46 03.4          19.4 GVEA135L01
     K03B01N KB2024 01 11.10053112 09 32.559-00 50 45.53         18.9 GXEA135B72
     K03B01N KB2024 01 11.10577112 09 26.639-00 51 57.50         19.0 GXEA135B72
     K03B01N KB2024 01 11.11100712 09 20.680-00 53 08.44         19.2 GXEA135B72
     K03B01N 1C2024 01 11.13256 12 08 56.07 -00 58 01.5          19.3 VXEA135033
     K03B01N 1C2024 01 11.13296 12 08 55.64 -00 58 07.0          19.2 VXEA135033
     K03B01N 1C2024 01 11.13335 12 08 55.20 -00 58 12.6          19.2 VXEA135033
     K03B01N 1C2024 01 11.13380 12 08 54.67 -00 58 18.6          19.1 VXEA135033
     K03B01N KB2024 01 11.15878 12 08 26.275-01 03 59.44         18.9 GXEA135K74
     K03B01N KB2024 01 11.16387 12 08 20.460-01 05 09.28         18.9 GXEA135K74
     K03B01N KB2024 01 11.16888 12 08 14.743-01 06 17.86         19.0 GXEA135K74
     K03B01N KB2024 01 11.17359 12 08 09.336-01 07 21.72         19.2 GXEA135K74
     K03B01N KB2024 01 11.17855 12 08 03.701-01 08 29.69         19.0 GXEA135K74
     K03B01N KB2024 01 11.18351 12 07 58.022-01 09 37.98         19.0 GXEA135K74
     K03B01N KB2024 01 11.38537 12 04 10.05 -01 55 49.0          19.2 GXEA135H36
     K03B01N KB2024 01 11.39138 12 04 03.08 -01 57 12.7          19.3 GXEA135H36
     K03B01N KB2024 01 11.39741 12 03 56.07 -01 58 36.0          19.0 GXEA135H36
Observer details:
033 Karl Schwarzschild Observatory, Tautenburg.  Observers S. Melnikov, C.
    Hogner, F. Ludwig, M. Hartmann, B. Stecklum.  Measurer B. Stecklum.
    1.34-m f/3 Schmidt + CCD.
703 Catalina Sky Survey.  Observers T. Beuden, D. Rankin.  Measurers T.
    Beuden, V. F. Carvajal, D. Fay, J. B. Fazekas, D. C. Fuls, A. R. Gibbs, A.
    D. Grauer, H. Groeller, J. K. Hogan, R. A. Kowalski, S. M. Larson, G. J.
    Leonard, D. Rankin, R. L. Seaman, F. C. Shelly, K. W. Wierzchos.  0.68-m
    Schmidt + 10K CCD.
B72 Soerth.  Observer B. Koch.  0.36-m f/7.6 reflector + CMO.
H36 Sandlot Observatory, Scranton.  Observer G. Hug.  0.56-m f/4.8 reflector +
    CMO.
K74 Muensterschwarzach Observatory, Schwarzach.  Observer C. Gerhard.  0.30-m
    f/3.75 reflector + CMO.
L01 Visnjan Observatory, Tican.  Observers K. Korlevic, L. Poropat.  Measurer
    K. Korlevic.  1.0-m f/2.9 reflector + CCD.
Q12 Nagano Observatory.  Observers R. Reszelewski, M. Zolnowski, M. Gedek, K.
    Zukowski, T. Santana-Ros, L. Conversi, M. Micheli, F. Ocana.  Measurer
    M. Micheli.  0.28-m f/2.2 reflector + CMO.
First and last observations above in comparison with prediction:
Residuals in seconds of arc (or zero decimals in degrees), reference and Delta-T
240110 703  118-    5-    240111 H36  123-    9-    E2023-P06   +78.6 days
Orbital elements:
2003 BN1                                                 Earth MOID = 0.0549 AU
Epoch 2023 Sept. 13.0 TT = JDT 2460200.5                Bell                    
M 315.08463              (2000.0)            P               Q                  
n   0.51570908     Peri.  104.42336     +0.29034664     -0.57210221             
a   1.5400431      Node   298.79973     +0.07001718     +0.81215527             
e   0.4878672      Incl.   61.08561     +0.95435655     +0.11446784             
P   1.91           H   20.24          G   0.15           U   9                  
Residuals in seconds of arc
030125 699  0.5-  0.9+    030125 620  0.1-  0.1-    030126 966  0.4-  0.6-
030125 699  0.5-  0.5+    030125 620  0.4+  0.1+    030127 699  0.2+  0.4-
030125 699  0.6-  0.0     030126 699  1.1+  0.5+    030127 699  0.2-  1.2-
030125 699  0.9-  1.0+    030126 699  1.0+  0.1+    030127 699  0.5+  0.1-
030125 118  0.7-  1.6+    030126 699  1.5-  2.6+    030127 699  0.0   0.5-
030125 118  0.3-  1.1+    030126 699  1.0-  1.2+    030127 699  0.8-  0.0
030125 118  0.1-  0.1+    030126 670  2.1+  0.5-    030127 699  0.8-  0.5+
030125 118  0.5-  0.3-    030126 670  0.0   0.5+    030127 699  0.1-  0.3+
030125 118  0.5+  0.2+    030126 926  0.2+  0.5+    030127 699  0.3-  0.1+
030125 240  0.3-  0.7+    030126 926  0.2-  0.2-    030127 926  0.1-  0.5+
030125 240  0.2+  0.6+    030126 926  0.6-  0.3+    030127 926  0.4+  0.0
030125 240  0.3+  1.0-    030126 670  0.4+  0.6+    030127 926  0.5+  0.3+
030125 240  0.3+  0.2+    030126 932  0.2-  0.1+    030128 704  0.0   0.1-
030125 240  1.0-  0.1+    030126 670  0.9-  1.4+    030128 704  0.5-  0.6-
030125 240  0.6-  0.4+    030126 932  0.2-  0.8-    030128 704  0.3-  0.3-
030125 240  0.4-  0.3+    030126 932  0.2+  1.5+    030128 448  0.1+  0.5-
030125 J95  0.6-  0.2+    030126 932  0.5-  0.6-    030128 448  0.0   0.7-
030125 J95  0.9-  0.7-    030126 644  0.1+  0.4-    030128 448  0.2+  0.1-
030125 J95  0.5-  0.0     030126 651  0.2-  0.5+    030129 413  0.2+  0.6+
030125 J95  0.3-  0.7+    030126 651  0.0   0.9+    030129 413  0.2+  0.3+
030125 J95  0.1+  0.3+    030126 651  0.1-  0.6+    030129 413  0.5+  0.4+
030125 176  0.4-  0.1-    030126 644  0.1-  0.2+    030129 J95  0.2-  0.8+
030125 176  0.3-  0.0     030126 644  0.3+  0.5-    030129 J95  0.7-  0.4-
030125 176  0.4-  0.0     030126 J95  0.4+  0.0     030129 J95  0.2-  0.6-
030125 176  0.4-  0.0     030126 J95  0.9-  0.9+    030201 246  0.5+  0.6+
030125 176  0.3-  0.1+    030126 J95  0.1-  0.2+    030201 246  0.1+  0.1+
030125 620  0.1+  0.2+    030126 J95  0.1-  0.6+    030201 246  0.1+  1.1-
030125 620  0.5+  0.0     030126 966  0.0   0.4+    030201 246  0.1-  0.4-
Ephemeris:
2003 BN1                 a,e,i = 1.54, 0.49, 61                  q = 0.7884
Date    TT    R. A. (2000) Decl.     Delta      r    Elong.  Phase     V
2023 12 13    15 33 45.8 +31 20 19   0.5751  0.8555    59.9    84.6    21.9
...
2023 12 28    14 39 47.6 +26 07 27   0.3443  0.9450    73.5    86.1    21.0
...
2024 01 05    13 38 10.9 +16 28 14   0.2280  1.0010    87.8    79.0    20.0
...
2024 01 11    12 11 24.7 -00 27 10   0.1680  1.0453   107.1    64.1    19.0
2024 01 12    11 52 11.4 -04 19 07   0.1631  1.0528   110.9    60.8    18.8
2024 01 13    11 31 43.6 -08 20 06   0.1601  1.0603   114.6    57.5    18.7
...
2024 01 19    09 20 52.0 -28 23 00   0.1852  1.1061   127.4    45.0    18.7
...
2024 01 27    07 23 13.0 -36 05 03   0.2912  1.1678   122.7    45.2    19.8
...
2024 02 11    06 08 50.2 -35 17 44   0.5459  1.2833   110.4    46.1    21.4
A. U. Tomatic                (C) Copyright 2024 MPC           M.P.E.C. 2024-A135
    
    
More information about the Iaude
mailing list